STARLINK-1826, 46723

Orbit data source: Space-Track

STARLINK-1826, 46723 is a payload satellite owned by SpaceX/Seattle (US) in LEO that was launched on Sun, 18 Oct 2020 UTC via an FALCON 9 launch vehicle from the Air Force Eastern Test Range (AFETR). Payload-class satellites include a variety of spacecraft equipped with specific instruments for various scientific and technological missions. These include communications satellites like Starlink; space stations such as the ISS; scientific satellites like the Hubble; Earth observation satellites from companies like Planet Labs, Umbra, and HawkEye 360; GPS; miniature CubeSats for education and research; and military/defense satellites.

Loading next visibility...
Identifier
46723, 2020-073BF
Orbit
LEO
Country
Flag of USUS
Related business
Manufacturer
SpaceX/Seattle
Mission
Operational Commercial Communications
Bus & Motor
STARLINK, Unknown motor
Mass
260 kg wet, ~248 kg dry
Launch date (UTC)
2020-10-18 (5 years ago)
Launch vehicle
FALCON 9
Launch site
Air Force Eastern Test Range (AFETR)
Object type
Payload
Rocket body
Debris
Shape & HBR
Box + 1 Pan, 10.1 m
Radar Cross Section
13.562 m², Large (>1 m²)

Expand to show TLE details & history
Last TLE update: 19 hours ago

TLE from 19 hours ago
0 STARLINK-1826
1 46723U 20073BF  25286.34939043  .00000021  00000-0  20310-4 0  9995
2 46723  53.0529 158.0530 0001496  92.5045 267.6116 15.06397414275277
Epoch: 2025-10-13T08:23Z
TLE epoch observation values (Epoch: 2025-10-13T08:23:07.333Z)
Latitude
0.00006°
Longitude
10.11904°
Altitude
548.142 km
Speed
7.589 km/s
True Right ascension
10h 32m 12s
True Declination
0° 00' 00"
Sunlit
Object was in daylight at epoch
Visualization orbit readout
Latitude
Unknown
Longitude
Unknown
Altitude
Unknown
Speed
Unknown
Apparent Right ascension
Unknown
Apparent Declination
Unknown
Sunlit
N/A
Visualization observer readout
Local Sidereal Time
22:09:59
Azimuth
Unknown
Elevation
Unknown
Doppler factor
Unknown
Orbital elements
Apogee altitude
548.527 km
Perigee altitude
546.454 km
Semi-major axis
6,925.627 km
Eccentricity
0.00015
Inclination
53.0529°
RAAN
158.053°
Arg. of periapsis
92.5045°
True anomaly
267.59447°
Mean anomaly
267.6116°
Eccentric anomaly
267.60304°
Mean motion
3.76578 °/min
Orbital period
95.6 mins
BSTAR
0.00002031
Loading maneuver chart data...
Computing Atmospheric mass density...
Loading historical data...
Loading historical data...
Loading historical data...
Loading historical data...
Loading historical data...
Loading historical data...
Loading historical data...

Documentation

Showing up to 5 results
|